Time,TemperatureF,DewpointF,PressureIn,WindDirection,WindDirectionDegrees,WindSpeedMPH,WindSpeedGustMPH,Humidity,HourlyPrecipIn,Conditions,Clouds,dailyrainin,SolarRadiationWatts/m^2,SoftwareType,DateUTC
2013-03-19 00:03:00,53.0,53.0,-100.00,ENE,76,0.0,4.0,100,0.00,,,0.00,0.000000,,2013-03-19 04:03:00,
2013-03-19 00:13:00,53.0,53.0,-100.00,ENE,76,0.0,4.0,100,0.00,,,0.00,0.000000,,2013-03-19 04:13:00,
2013-03-19 00:43:00,54.0,54.0,-100.00,ENE,75,0.0,0.0,100,0.00,,,0.00,0.000000,,2013-03-19 04:43:00,
2013-03-19 00:53:00,54.0,54.0,-100.00,ENE,75,0.0,0.0,100,0.00,,,0.00,0.000000,,2013-03-19 04:53:00,
2013-03-19 01:02:00,54.0,54.0,-100.00,ENE,75,0.0,0.0,100,0.00,,,0.00,0.000000,,2013-03-19 05:02:00,
2013-03-19 01:12:00,54.0,54.0,-100.00,ENE,75,0.0,0.0,100,0.00,,,0.00,0.000000,,2013-03-19 05:12:00,
2013-03-19 01:43:00,55.0,55.0,-100.00,ENE,73,0.0,0.0,100,0.00,,,0.00,0.000000,,2013-03-19 05:43:00,
2013-03-19 01:52:00,55.0,55.0,-100.00,ENE,73,0.0,0.0,100,0.00,,,0.00,0.000000,,2013-03-19 05:52:00,
2013-03-19 02:03:00,55.0,55.0,-100.00,ENE,73,0.0,0.0,100,0.00,,,0.00,0.000000,,2013-03-19 06:03:00,
2013-03-19 02:12:00,55.0,55.0,-100.00,ENE,73,0.0,0.0,100,0.00,,,0.00,0.000000,,2013-03-19 06:12:00,
2013-03-19 02:42:00,55.0,55.0,-100.00,NNW,338,2.0,5.0,99,0.03,,,0.03,0.000000,,2013-03-19 06:42:00,
2013-03-19 02:53:00,55.0,55.0,-100.00,NNW,338,2.0,5.0,99,0.03,,,0.03,0.000000,,2013-03-19 06:53:00,
2013-03-19 03:03:00,55.0,55.0,-100.00,NNW,338,2.0,5.0,99,0.03,,,0.03,0.000000,,2013-03-19 07:03:00,
2013-03-19 03:12:00,55.0,55.0,-100.00,NNW,338,2.0,5.0,99,0.03,,,0.03,0.000000,,2013-03-19 07:12:00,
2013-03-19 03:42:00,55.0,55.0,-100.00,SE,139,2.0,8.0,100,0.34,,,0.37,0.000000,,2013-03-19 07:42:00,
2013-03-19 03:53:00,55.0,55.0,-100.00,SE,139,2.0,8.0,100,0.34,,,0.37,0.000000,,2013-03-19 07:53:00,
2013-03-19 04:03:00,55.0,55.0,-100.00,SE,139,2.0,8.0,100,0.34,,,0.37,0.000000,,2013-03-19 08:03:00,
2013-03-19 04:12:00,55.0,55.0,-100.00,SE,139,2.0,8.0,100,0.34,,,0.37,0.000000,,2013-03-19 08:12:00,
2013-03-19 04:43:00,57.0,57.0,-100.00,ESE,123,4.0,6.0,100,0.04,,,0.41,0.000000,,2013-03-19 08:43:00,
2013-03-19 04:53:00,57.0,57.0,-100.00,ESE,123,4.0,6.0,100,0.04,,,0.41,0.000000,,2013-03-19 08:53:00,
2013-03-19 05:03:00,57.0,57.0,-100.00,ESE,123,4.0,6.0,100,0.04,,,0.41,0.000000,,2013-03-19 09:03:00,
2013-03-19 05:12:00,57.0,57.0,-100.00,ESE,123,4.0,6.0,100,0.04,,,0.41,0.000000,,2013-03-19 09:12:00,
2013-03-19 05:43:00,57.0,57.0,-100.00,WNW,292,5.0,10.0,100,0.00,,,0.41,0.000000,,2013-03-19 09:43:00,
2013-03-19 05:53:00,57.0,57.0,-100.00,WNW,292,5.0,10.0,100,0.00,,,0.41,0.000000,,2013-03-19 09:53:00,
2013-03-19 06:04:00,57.0,57.0,-100.00,WNW,292,5.0,10.0,100,0.00,,,0.41,0.000000,,2013-03-19 10:04:00,
2013-03-19 06:13:00,57.0,57.0,-100.00,WNW,292,5.0,10.0,100,0.00,,,0.41,0.000000,,2013-03-19 10:13:00,
2013-03-19 06:42:00,55.0,55.0,-100.00,West,279,4.0,8.0,100,0.00,,,0.41,0.000000,,2013-03-19 10:42:00,
2013-03-19 06:53:00,55.0,55.0,-100.00,West,279,4.0,8.0,100,0.00,,,0.41,0.000000,,2013-03-19 10:53:00,
2013-03-19 07:03:00,55.0,55.0,-100.00,West,279,4.0,8.0,100,0.00,,,0.41,0.000000,,2013-03-19 11:03:00,
2013-03-19 07:12:00,55.0,55.0,-100.00,West,279,4.0,8.0,100,0.00,,,0.41,0.000000,,2013-03-19 11:12:00,
2013-03-19 07:43:00,54.0,53.0,-100.00,WNW,284,7.0,13.0,98,0.00,,,0.41,0.000000,,2013-03-19 11:43:00,
2013-03-19 07:53:00,54.0,53.0,-100.00,WNW,284,7.0,13.0,98,0.00,,,0.41,0.000000,,2013-03-19 11:53:00,
2013-03-19 08:02:00,54.0,53.0,-100.00,WNW,284,7.0,13.0,98,0.00,,,0.41,0.000000,,2013-03-19 12:02:00,
2013-03-19 08:12:00,54.0,53.0,-100.00,WNW,284,7.0,13.0,98,0.00,,,0.41,0.000000,,2013-03-19 12:12:00,
2013-03-19 08:43:00,53.0,53.0,-100.00,WNW,303,7.0,12.0,100,0.00,,,0.41,27.000000,,2013-03-19 12:43:00,
2013-03-19 08:52:00,53.0,53.0,-100.00,WNW,303,7.0,12.0,100,0.00,,,0.41,27.000000,,2013-03-19 12:52:00,
2013-03-19 09:02:00,53.0,53.0,-100.00,WNW,303,7.0,12.0,100,0.00,,,0.41,27.000000,,2013-03-19 13:02:00,
2013-03-19 09:12:00,53.0,53.0,-100.00,WNW,303,7.0,12.0,100,0.00,,,0.41,27.000000,,2013-03-19 13:12:00,
2013-03-19 09:42:00,53.0,52.0,-100.00,WNW,284,7.0,15.0,97,0.00,,,0.41,132.000000,,2013-03-19 13:42:00,
2013-03-19 09:53:00,53.0,52.0,-100.00,WNW,284,7.0,15.0,97,0.00,,,0.41,132.000000,,2013-03-19 13:53:00,
2013-03-19 10:02:00,53.0,52.0,-100.00,WNW,284,7.0,15.0,97,0.00,,,0.41,132.000000,,2013-03-19 14:02:00,
2013-03-19 10:12:00,53.0,52.0,-100.00,WNW,284,7.0,15.0,97,0.00,,,0.41,132.000000,,2013-03-19 14:12:00,
2013-03-19 10:42:00,55.0,52.0,-100.00,WNW,303,7.0,15.0,90,0.00,,,0.41,335.000000,,2013-03-19 14:42:00,
2013-03-19 10:53:00,55.0,52.0,-100.00,WNW,303,7.0,15.0,90,0.00,,,0.41,335.000000,,2013-03-19 14:53:00,
2013-03-19 11:02:00,55.0,52.0,-100.00,WNW,303,7.0,15.0,90,0.00,,,0.41,335.000000,,2013-03-19 15:02:00,
2013-03-19 11:12:00,55.0,52.0,-100.00,WNW,303,7.0,15.0,90,0.00,,,0.41,335.000000,,2013-03-19 15:12:00,
2013-03-19 11:44:00,58.0,53.0,-100.00,WNW,302,8.0,15.0,83,0.00,,,0.41,587.000000,,2013-03-19 15:44:00,
2013-03-19 11:54:00,58.0,53.0,-100.00,WNW,302,8.0,15.0,83,0.00,,,0.41,587.000000,,2013-03-19 15:54:00,
2013-03-19 12:04:00,58.0,53.0,-100.00,WNW,302,8.0,15.0,83,0.00,,,0.41,587.000000,,2013-03-19 16:04:00,
2013-03-19 12:13:00,58.0,53.0,-100.00,WNW,302,8.0,15.0,83,0.00,,,0.41,587.000000,,2013-03-19 16:13:00,
2013-03-19 12:44:00,58.0,52.0,-100.00,WNW,301,10.0,15.0,80,0.00,,,0.41,599.000000,,2013-03-19 16:44:00,
2013-03-19 12:55:00,58.0,52.0,-100.00,WNW,301,10.0,15.0,80,0.00,,,0.41,599.000000,,2013-03-19 16:55:00,
2013-03-19 13:03:00,58.0,52.0,-100.00,WNW,301,10.0,15.0,80,0.00,,,0.41,599.000000,,2013-03-19 17:03:00,
2013-03-19 13:14:00,58.0,52.0,-100.00,WNW,301,10.0,15.0,80,0.00,,,0.41,599.000000,,2013-03-19 17:14:00,
2013-03-19 13:44:00,59.0,52.0,-100.00,NW,325,10.0,18.0,78,0.00,,,0.41,597.000000,,2013-03-19 17:44:00,
2013-03-19 13:53:00,59.0,52.0,-100.00,NW,325,10.0,18.0,78,0.00,,,0.41,597.000000,,2013-03-19 17:53:00,
2013-03-19 14:03:00,59.0,52.0,-100.00,NW,325,10.0,18.0,78,0.00,,,0.41,597.000000,,2013-03-19 18:03:00,
2013-03-19 14:14:00,59.0,52.0,-100.00,NW,325,10.0,18.0,78,0.00,,,0.41,597.000000,,2013-03-19 18:14:00,
2013-03-19 14:44:00,63.0,53.0,-100.00,NW,325,11.0,19.0,69,0.00,,,0.41,873.000000,,2013-03-19 18:44:00,
2013-03-19 14:54:00,63.0,53.0,-100.00,NW,325,11.0,19.0,69,0.00,,,0.41,873.000000,,2013-03-19 18:54:00,
2013-03-19 15:03:00,63.0,53.0,-100.00,NW,325,11.0,19.0,69,0.00,,,0.41,873.000000,,2013-03-19 19:03:00,
2013-03-19 15:12:00,63.0,53.0,-100.00,NW,325,11.0,19.0,69,0.00,,,0.41,873.000000,,2013-03-19 19:12:00,
2013-03-19 15:43:00,66.0,51.0,-100.00,WNW,286,7.0,14.0,59,0.00,,,0.41,812.000000,,2013-03-19 19:43:00,
2013-03-19 15:53:00,66.0,51.0,-100.00,WNW,286,7.0,14.0,59,0.00,,,0.41,812.000000,,2013-03-19 19:53:00,
2013-03-19 16:03:00,66.0,51.0,-100.00,WNW,286,7.0,14.0,59,0.00,,,0.41,812.000000,,2013-03-19 20:03:00,
2013-03-19 16:12:00,66.0,51.0,-100.00,WNW,286,7.0,14.0,59,0.00,,,0.41,812.000000,,2013-03-19 20:12:00,
2013-03-19 16:43:00,68.0,48.0,-100.00,WNW,298,10.0,17.0,49,0.00,,,0.41,685.000000,,2013-03-19 20:43:00,
2013-03-19 16:53:00,68.0,48.0,-100.00,WNW,298,10.0,17.0,49,0.00,,,0.41,685.000000,,2013-03-19 20:53:00,
2013-03-19 17:02:00,68.0,48.0,-100.00,WNW,298,10.0,17.0,49,0.00,,,0.41,685.000000,,2013-03-19 21:02:00,
2013-03-19 17:12:00,68.0,48.0,-100.00,WNW,298,10.0,17.0,49,0.00,,,0.41,685.000000,,2013-03-19 21:12:00,
2013-03-19 17:43:00,69.0,43.0,-100.00,WNW,283,8.0,17.0,39,0.00,,,0.41,451.000000,,2013-03-19 21:43:00,
2013-03-19 17:53:00,69.0,43.0,-100.00,WNW,283,8.0,17.0,39,0.00,,,0.41,451.000000,,2013-03-19 21:53:00,
2013-03-19 18:03:00,69.0,43.0,-100.00,WNW,283,8.0,17.0,39,0.00,,,0.41,451.000000,,2013-03-19 22:03:00,
2013-03-19 18:13:00,69.0,43.0,-100.00,WNW,283,8.0,17.0,39,0.00,,,0.41,451.000000,,2013-03-19 22:13:00,
2013-03-19 18:44:00,69.0,37.0,-100.00,WNW,290,7.0,12.0,31,0.00,,,0.41,228.000000,,2013-03-19 22:44:00,
2013-03-19 18:54:00,69.0,37.0,-100.00,WNW,290,7.0,12.0,31,0.00,,,0.41,228.000000,,2013-03-19 22:54:00,
2013-03-19 19:03:00,69.0,37.0,-100.00,WNW,290,7.0,12.0,31,0.00,,,0.41,228.000000,,2013-03-19 23:03:00,
2013-03-19 19:12:00,69.0,37.0,-100.00,WNW,290,7.0,12.0,31,0.00,,,0.41,228.000000,,2013-03-19 23:12:00,
2013-03-19 19:43:00,65.0,39.0,-100.00,West,268,0.0,10.0,38,0.00,,,0.41,44.000000,,2013-03-19 23:43:00,
2013-03-19 19:53:00,65.0,39.0,-100.00,West,268,0.0,10.0,38,0.00,,,0.41,44.000000,,2013-03-19 23:53:00,
2013-03-19 20:03:00,65.0,39.0,-100.00,West,268,0.0,10.0,38,0.00,,,0.41,44.000000,,2013-03-20 00:03:00,
2013-03-19 20:13:00,65.0,39.0,-100.00,West,268,0.0,10.0,38,0.00,,,0.41,44.000000,,2013-03-20 00:13:00,
2013-03-19 20:43:00,55.0,49.0,-100.00,SE,130,0.0,6.0,80,0.00,,,0.41,1.000000,,2013-03-20 00:43:00,
2013-03-19 20:52:00,55.0,49.0,-100.00,SE,130,0.0,6.0,80,0.00,,,0.41,1.000000,,2013-03-20 00:52:00,
2013-03-19 21:03:00,55.0,49.0,-100.00,SE,130,0.0,6.0,80,0.00,,,0.41,1.000000,,2013-03-20 01:03:00,
2013-03-19 21:12:00,55.0,49.0,-100.00,SE,130,0.0,6.0,80,0.00,,,0.41,1.000000,,2013-03-20 01:12:00,
2013-03-19 21:43:00,51.0,49.0,-100.00,South,189,0.0,0.0,93,0.00,,,0.41,0.000000,,2013-03-20 01:43:00,
2013-03-19 21:53:00,51.0,49.0,-100.00,South,189,0.0,0.0,93,0.00,,,0.41,0.000000,,2013-03-20 01:53:00,
2013-03-19 22:02:00,51.0,49.0,-100.00,South,189,0.0,0.0,93,0.00,,,0.41,0.000000,,2013-03-20 02:02:00,
2013-03-19 22:12:00,51.0,49.0,-100.00,South,189,0.0,0.0,93,0.00,,,0.41,0.000000,,2013-03-20 02:12:00,
2013-03-19 22:43:00,48.0,47.0,-100.00,WNW,283,0.0,0.0,98,0.00,,,0.41,0.000000,,2013-03-20 02:43:00,
2013-03-19 22:53:00,48.0,47.0,-100.00,WNW,283,0.0,0.0,98,0.00,,,0.41,0.000000,,2013-03-20 02:53:00,
2013-03-19 23:02:00,48.0,47.0,-100.00,WNW,283,0.0,0.0,98,0.00,,,0.41,0.000000,,2013-03-20 03:02:00,
2013-03-19 23:12:00,48.0,47.0,-100.00,WNW,283,0.0,0.0,98,0.00,,,0.41,0.000000,,2013-03-20 03:12:00,
2013-03-19 23:34:00,45.0,44.0,-100.00,WNW,288,0.0,0.0,98,0.00,,,0.41,0.000000,,2013-03-20 03:34:00,
2013-03-19 23:43:00,45.0,44.0,-100.00,WNW,288,0.0,0.0,98,0.00,,,0.41,0.000000,,2013-03-20 03:43:00,
2013-03-19 23:53:00,45.0,44.0,-100.00,WNW,288,0.0,0.0,98,0.00,,,0.41,0.000000,,2013-03-20 03:53:00,